EW3791 Weather Reports


time (UTC)temp
F
wind
direction
speed
knots
gust
knots
rain 1hr
in
rain 24hr
in
rain mn
in
humidity
%
barometer
mb
20190624110049 69 66 8.7 16.5 0.04 0.11 0.04 92 1013.4
20190624104509 71 27 8.7 23.5 0.00 0.07 0.00 86 1012.2
20190624103109 76 42 13.0 26.9 0.00 0.07 0.00 77 1012.4
20190624101514 83 102 0.0 2.6 0.00 0.07 0.00 87 1011.4
20190624100121 83 113 2.6 5.2 0.00 0.07 0.00 88 1010.8
20190624094523 83 135 2.6 6.1 0.00 0.07 0.00 87 1010.4
20190624093153 83 174 3.5 7.8 0.00 0.07 0.00 87 1010.1
20190624091550 83 157 3.5 7.0 0.00 0.07 0.00 87 1010.0
20190624090005 83 158 3.5 7.8 0.00 0.07 0.00 87 1010.1
20190624084548 83 162 2.6 7.8 0.00 0.07 0.00 87 1010.0
20190624083039 83 162 3.5 9.6 0.00 0.07 0.00 86 1009.8
20190624081631 83 155 4.3 12.2 0.00 0.07 0.00 86 1009.8
20190624080037 84 148 6.1 9.6 0.00 0.07 0.00 87 1010.0
20190624073211 84 188 4.3 12.2 0.00 0.07 0.00 86 1010.1
20190624071503 83 136 3.5 9.6 0.00 0.07 0.00 87 1010.2
20190624070126 83 207 5.2 13.0 0.00 0.07 0.00 87 1010.1
20190624064515 83 139 4.3 9.6 0.00 0.07 0.00 87 1010.0
20190624063126 83 127 3.5 8.7 0.00 0.07 0.00 87 1009.8
20190624061525 84 167 2.6 7.8 0.00 0.07 0.00 87 1009.9
20190624054536 84 108 5.2 14.8 0.00 0.07 0.00 87 1009.8
20190624053011 84 150 6.1 14.8 0.00 0.07 0.00 87 1010.1
20190624051625 84 155 4.3 10.4 0.00 0.07 0.00 86 1009.7
20190624050026 84 153 2.6 10.4 0.00 0.07 0.00 86 1009.8
20190624043113 84 165 3.5 11.3 0.00 0.07 0.07 86 1009.7
20190624041512 84 184 5.2 12.2 0.00 0.07 0.07 86 1009.7
20190624040138 84 149 3.5 12.2 0.00 0.07 0.07 86 1009.8
20190624034539 84 148 4.3 9.6 0.00 0.07 0.07 85 1009.6
20190624031544 84 195 5.2 9.6 0.00 0.07 0.07 85 1009.3
20190624030006 84 139 6.1 14.8 0.00 0.07 0.07 85 1009.1
20190624024612 84 167 3.5 7.8 0.00 0.07 0.07 84 1009.1
20190624023219 85 199 4.3 9.6 0.00 0.07 0.07 84 1009.0
20190624020101 85 146 5.2 9.6 0.00 0.07 0.07 82 1008.9
20190624014505 86 155 4.3 13.9 0.00 0.07 0.07 81 1008.7
20190624013202 86 184 4.3 13.9 0.00 0.07 0.07 79 1008.6
20190624011618 87 159 1.7 9.6 0.00 0.07 0.07 78 1008.6
20190624004648 87 137 3.5 7.8 0.00 0.07 0.07 77 1008.5
20190624003001 88 159 7.0 11.3 0.00 0.07 0.07 76 1008.5
20190624001637 88 112 7.8 13.9 0.00 0.07 0.07 74 1008.5
20190624000033 89 177 3.5 10.4 0.00 0.07 0.07 74 1008.5
20190623234658 88 124 6.1 13.9 0.00 0.07 0.07 75 1008.5
20190623233121 88 138 4.3 11.3 0.00 0.07 0.07 75 1008.8
20190623231511 89 92 5.2 17.4 0.00 0.07 0.07 75 1008.7
20190623230106 89 113 7.8 17.4 0.00 0.07 0.07 73 1008.9
20190623224530 90 135 4.3 17.4 0.00 0.07 0.07 71 1008.9
20190623223159 90 176 7.8 14.8 0.00 0.07 0.07 70 1009.0
20190623221525 90 185 7.0 15.6 0.00 0.07 0.07 70 1009.2
20190623214559 90 148 6.1 15.6 0.00 0.07 0.07 71 1009.3
20190623213002 91 150 5.2 17.4 0.00 0.07 0.07 71 1009.2
20190623211606 90 197 7.8 14.8 0.00 0.07 0.07 70 1009.2
20190623210011 90 182 4.3 13.9 0.00 0.07 0.07 73 1009.4
20190623204726 89 127 4.3 17.4 0.00 0.09 0.07 74 1009.8
20190623203036 90 195 4.3 15.6 0.00 0.09 0.07 71 1009.9
20190623200052 91 158 4.3 13.9 0.00 0.09 0.07 69 1010.2
20190623193105 91 152 5.2 18.2 0.00 0.09 0.07 69 1010.4
20190623190040 90 207 7.0 15.6 0.00 0.09 0.07 69 1010.8
20190623184511 90 169 8.7 19.1 0.00 0.09 0.07 69 1010.9
20190623183124 89 150 5.2 13.9 0.00 0.09 0.07 75 1011.0
20190623181556 89 149 6.1 12.2 0.00 0.09 0.07 73 1011.2
20190623180119 89 133 5.2 13.0 0.05 0.09 0.07 74 1011.3
20190623174551 88 238 4.3 13.9 0.07 0.09 0.07 78 1011.6
20190623171631 85 162 3.5 11.3 0.07 0.09 0.07 83 1011.8
20190623164621 88 174 6.1 13.0 0.00 0.02 0.00 73 1012.1
20190623163010 89 136 7.0 15.6 0.00 0.02 0.00 70 1012.3
20190623161744 88 172 4.3 11.3 0.00 0.02 0.00 73 1012.2
20190623160041 88 203 8.7 14.8 0.00 0.02 0.00 73 1012.2
20190623153107 87 131 4.3 14.8 0.00 0.02 0.00 74 1012.4
20190623150117 86 141 5.2 15.6 0.00 0.02 0.00 76 1012.6
20190623144502 86 143 8.7 15.6 0.00 0.02 0.00 76 1012.8
20190623143127 86 153 3.5 11.3 0.00 0.02 0.00 78 1012.8
20190623141534 86 175 5.2 11.3 0.00 0.02 0.00 78 1013.0
20190623140122 85 146 5.2 13.9 0.00 0.02 0.00 79 1012.9
20190623134552 85 127 6.1 13.0 0.00 0.02 0.00 81 1012.9
20190623133336 85 155 4.3 15.6 0.00 0.02 0.00 80 1012.9
20190623131609 84 164 4.3 8.7 0.00 0.02 0.00 81 1012.7
20190623130017 84 177 2.6 8.7 0.00 0.02 0.00 81 1012.4
20190623124554 83 137 1.7 7.8 0.00 0.02 0.00 82 1012.3
20190623123045 83 190 2.6 6.1 0.00 0.02 0.00 83 1012.2
20190623121616 83 197 3.5 7.8 0.00 0.02 0.00 83 1012.1
20190623120046 82 149 2.6 7.8 0.00 0.02 0.00 84 1012.1
20190623113109 82 151 3.5 10.4 0.00 0.02 0.00 85 1012.3